CW9792 Weather Reports


time (UTC)temp
F
wind
direction
speed
knots
gust
knots
rain 1hr
in
rain 24hr
in
rain mn
in
humidity
%
barometer
mb
20260904201025 97 301 0.0 0.0 0.00 0.00 0.00 36 1013.0
20260904200527 97 296 0.0 0.0 0.00 0.00 0.00 34 1013.0
20260904200035 97 329 0.0 0.0 0.00 0.00 0.00 34 1013.1
20260904195523 98 5 0.0 0.0 0.00 0.00 0.00 32 1013.2
20260904195024 99 9 0.0 0.0 0.00 0.00 0.00 33 1013.4
20260904194521 97 40 0.0 0.0 0.00 0.00 0.00 35 1013.4
20260904194020 96 9 0.0 0.0 0.00 0.00 0.00 36 1013.5
20260904193522 95 355 0.0 0.0 0.00 0.00 0.00 38 1013.7
20260904193020 95 9 0.0 0.0 0.00 0.00 0.00 36 1013.7
20260904192518 96 342 0.0 0.0 0.00 0.00 0.00 36 1013.8
20260904192018 96 355 0.0 0.0 0.00 0.00 0.00 36 1013.9
20260904191518 97 348 0.0 0.0 0.00 0.00 0.00 35 1014.0
20260904191018 97 355 0.0 0.0 0.00 0.00 0.00 36 1014.1
20260904190618 95 327 0.0 0.0 0.00 0.00 0.00 36 1014.1
20260904190017 95 327 0.0 0.0 0.00 0.00 0.00 38 1014.2
20260904185517 94 350 0.0 0.0 0.00 0.00 0.00 38 1014.3
20260904185017 94 342 0.0 0.0 0.00 0.00 0.00 36 1014.4
20260904184517 95 331 0.0 0.0 0.00 0.00 0.00 36 1014.3
20260904184017 95 355 0.0 0.0 0.00 0.00 0.00 37 1014.4
20260904183517 95 18 0.0 0.0 0.00 0.00 0.00 36 1014.4
20260904183017 95 343 0.0 0.0 0.00 0.00 0.00 38 1014.5
20260904182521 96 315 0.0 0.0 0.00 0.00 0.00 36 1014.5
20260904182016 95 345 0.0 0.0 0.00 0.00 0.00 36 1014.6
20260904181516 95 337 0.0 0.0 0.00 0.00 0.00 36 1014.5
20260904181016 96 280 0.0 0.9 0.00 0.00 0.00 35 1014.6
20260904180519 97 246 0.0 0.0 0.00 0.00 0.00 34 1014.6
20260904180015 96 10 0.0 1.7 0.00 0.00 0.00 34 1014.7
20260904175516 97 249 0.0 1.7 0.00 0.00 0.00 35 1014.7
20260904175013 96 281 0.0 0.0 0.00 0.00 0.00 36 1014.8
20260904174516 95 285 0.0 0.0 0.00 0.00 0.00 36 1014.9
20260904174013 96 308 0.0 0.0 0.00 0.00 0.00 35 1014.9
20260904173517 95 298 0.0 0.0 0.00 0.00 0.00 36 1015.0
20260904173015 96 313 0.0 0.0 0.00 0.00 0.00 35 1014.9
20260904172511 95 350 0.0 0.0 0.00 0.00 0.00 37 1014.8
20260904172011 95 306 0.0 0.0 0.00 0.00 0.00 36 1015.0
20260904171510 95 315 0.0 0.0 0.00 0.00 0.00 37 1015.0
20260904171010 95 327 0.0 0.0 0.00 0.00 0.00 36 1015.0
20260904170509 95 338 0.0 0.0 0.00 0.00 0.00 36 1015.1
20260904170009 94 326 0.0 0.0 0.00 0.00 0.00 37 1015.1
20260904165509 94 312 0.0 0.0 0.00 0.00 0.00 37 1015.1
20260904165009 94 355 0.0 0.0 0.00 0.00 0.00 37 1015.2
20260904164508 94 291 0.0 0.0 0.00 0.00 0.00 38 1015.3
20260904164009 94 284 0.0 0.0 0.00 0.00 0.00 38 1015.3
20260904163508 94 284 0.0 0.0 0.00 0.00 0.00 38 1015.3
20260904163015 94 348 0.0 0.0 0.00 0.00 0.00 38 1015.3
20260904162506 94 323 0.0 0.0 0.00 0.00 0.00 39 1015.2
20260904162006 94 348 0.0 0.0 0.00 0.00 0.00 40 1015.2
20260904161507 94 300 0.0 0.0 0.00 0.00 0.00 40 1015.2
20260904161005 94 306 0.0 0.0 0.00 0.00 0.00 40 1015.2
20260904160505 93 287 0.0 0.0 0.00 0.00 0.00 43 1015.2
20260904160008 93 285 0.0 0.0 0.00 0.00 0.00 41 1015.2
20260904155504 93 289 0.0 0.0 0.00 0.00 0.00 40 1015.3
20260904155004 93 300 0.0 0.0 0.00 0.00 0.00 40 1015.3
20260904154504 93 323 0.0 0.0 0.00 0.00 0.00 39 1015.3
20260904154003 94 338 0.0 0.0 0.00 0.00 0.00 39 1015.2
20260904153504 93 288 0.0 0.0 0.00 0.00 0.00 42 1015.3
20260904153001 92 287 0.0 0.0 0.00 0.00 0.00 42 1015.3
20260904152600 92 286 0.0 0.0 0.00 0.00 0.00 41 1015.3
20260904152100 92 295 0.0 0.0 0.00 0.00 0.00 43 1015.4
20260904151559 92 292 0.0 0.0 0.00 0.00 0.00 42 1015.4
20260904151058 92 276 0.0 0.0 0.00 0.00 0.00 41 1015.3
20260904150601 92 296 0.0 0.0 0.00 0.00 0.00 42 1015.3
20260904150056 91 295 0.0 0.0 0.00 0.00 0.00 44 1015.3
20260904145555 91 312 0.0 0.0 0.00 0.00 0.00 45 1015.3
20260904145055 91 286 0.0 0.0 0.00 0.00 0.00 45 1015.2
20260904144555 91 277 0.0 0.0 0.00 0.00 0.00 45 1015.3
20260904144054 91 329 0.0 0.0 0.00 0.00 0.00 45 1015.3
20260904143553 91 277 0.0 0.0 0.00 0.00 0.00 47 1015.3
20260904143053 90 277 0.0 0.0 0.00 0.00 0.00 47 1015.2
20260904142551 89 277 0.0 0.0 0.00 0.00 0.00 49 1015.2
20260904142050 89 277 0.0 0.0 0.00 0.00 0.00 49 1015.3
20260904141555 88 277 0.0 0.0 0.00 0.00 0.00 49 1015.3
20260904141047 88 276 0.0 0.0 0.00 0.00 0.00 50 1015.2
20260904140547 87 262 0.0 0.0 0.00 0.00 0.00 53 1015.3
20260904140048 86 168 0.0 0.0 0.00 0.00 0.00 56 1015.3
20260904135546 85 168 0.0 0.0 0.00 0.00 0.00 57 1015.2
20260904135042 84 168 0.0 0.0 0.00 0.00 0.00 57 1015.2
20260904134600 84 159 0.0 0.0 0.00 0.00 0.00 58 1015.2
20260904134039 83 158 0.0 0.0 0.00 0.00 0.00 58 1015.3
20260904133538 82 178 0.0 0.0 0.00 0.00 0.00 58 1015.3
20260904133039 82 178 0.0 0.0 0.00 0.00 0.00 58 1015.3
20260904132537 81 161 0.0 0.0 0.00 0.00 0.00 58 1015.3
20260904132033 80 180 0.0 0.0 0.00 0.00 0.00 58 1015.2
20260904131533 80 181 0.0 0.0 0.00 0.00 0.00 58 1015.2
20260904131032 79 181 0.0 0.0 0.00 0.00 0.00 59 1015.2
20260904130532 79 90 0.0 0.0 0.00 0.00 0.00 60 1015.2
20260904130035 78 82 0.0 0.0 0.00 0.00 0.00 61 1015.1
20260904125534 77 221 0.0 0.0 0.00 0.00 0.00 63 1015.2
20260904125031 76 221 0.0 0.0 0.00 0.00 0.00 64 1015.1
20260904124530 76 221 0.0 0.0 0.00 0.00 0.00 66 1015.0
20260904124029 75 221 0.0 0.0 0.00 0.00 0.00 67 1014.9
20260904123529 75 223 0.0 0.0 0.00 0.00 0.00 67 1014.9
20260904123029 74 223 0.0 0.0 0.00 0.00 0.00 67 1014.9
20260904122528 74 223 0.0 0.0 0.00 0.00 0.00 67 1014.9
20260904122030 73 225 0.0 0.0 0.00 0.00 0.00 67 1014.8
20260904121527 72 227 0.0 0.0 0.00 0.00 0.00 66 1014.8
20260904121026 72 227 0.0 0.0 0.00 0.00 0.00 66 1014.8
20260904120528 72 227 0.0 0.0 0.00 0.00 0.00 66 1014.9
20260904120027 72 227 0.0 0.0 0.00 0.00 0.00 66 1014.8
20260904115528 72 227 0.0 0.0 0.00 0.00 0.00 66 1014.8
20260904115026 72 227 0.0 0.0 0.00 0.00 0.00 66 1014.8
20260904114526 72 227 0.0 0.0 0.00 0.00 0.00 66 1014.7
20260904114031 72 227 0.0 0.0 0.00 0.00 0.00 65 1014.8
20260904113525 72 227 0.0 0.0 0.00 0.00 0.00 65 1014.7
20260904113023 72 227 0.0 0.0 0.00 0.00 0.00 65 1014.5
20260904112522 72 227 0.0 0.0 0.00 0.00 0.00 65 1014.5
20260904112022 72 227 0.0 0.0 0.00 0.00 0.00 65 1014.5
20260904111522 72 227 0.0 0.0 0.00 0.00 0.00 65 1014.5
20260904111022 72 227 0.0 0.0 0.00 0.00 0.00 65 1014.4
20260904110521 72 227 0.0 0.0 0.00 0.00 0.00 65 1014.4
20260904110020 72 227 0.0 0.0 0.00 0.00 0.00 65 1014.2
20260904105522 72 227 0.0 0.0 0.00 0.00 0.00 65 1014.2
20260904105021 72 227 0.0 0.0 0.00 0.00 0.00 65 1014.3
20260904104520 73 227 0.0 0.0 0.00 0.00 0.00 65 1014.3
20260904104019 73 227 0.0 0.0 0.00 0.00 0.00 65 1014.3
20260904103522 73 227 0.0 0.0 0.00 0.00 0.00 65 1014.3
20260904103022 73 227 0.0 0.0 0.00 0.00 0.00 65 1014.2
20260904102518 73 227 0.0 0.0 0.00 0.00 0.00 65 1014.1
20260904102018 73 227 0.0 0.0 0.00 0.00 0.00 65 1014.1
20260904101517 73 227 0.0 0.0 0.00 0.00 0.00 65 1014.0
20260904101018 73 227 0.0 0.0 0.00 0.00 0.00 65 1014.1
20260904100517 73 227 0.0 0.0 0.00 0.00 0.00 64 1014.1
20260904100017 73 227 0.0 0.0 0.00 0.00 0.00 64 1014.1
20260904095521 73 227 0.0 0.0 0.00 0.00 0.00 64 1014.0
20260904095017 73 227 0.0 0.0 0.00 0.00 0.00 64 1013.9
20260904094533 73 227 0.0 0.0 0.00 0.00 0.00 64 1013.8
20260904094015 73 227 0.0 0.0 0.00 0.00 0.00 64 1014.0
20260904093515 74 227 0.0 0.0 0.00 0.00 0.00 64 1014.0
20260904093017 74 227 0.0 0.0 0.00 0.00 0.00 63 1014.0
20260904092516 74 227 0.0 0.0 0.00 0.00 0.00 63 1013.8
20260904092013 74 227 0.0 0.0 0.00 0.00 0.00 63 1013.8
20260904091513 74 227 0.0 0.0 0.00 0.00 0.00 63 1013.8
20260904091011 74 227 0.0 0.0 0.00 0.00 0.00 63 1013.9
20260904090511 74 227 0.0 0.0 0.00 0.00 0.00 63 1013.9
20260904090028 74 227 0.0 0.0 0.00 0.00 0.00 63 1013.8
20260904085511 74 227 0.0 0.0 0.00 0.00 0.00 63 1013.8
20260904085011 74 227 0.0 0.0 0.00 0.00 0.00 63 1013.8
20260904084512 74 227 0.0 0.0 0.00 0.00 0.00 63 1013.8
20260904084013 74 227 0.0 0.0 0.00 0.00 0.00 63 1013.8
20260904083510 75 227 0.0 0.0 0.00 0.00 0.00 63 1013.7
20260904083009 75 227 0.0 0.0 0.00 0.00 0.00 63 1013.8
20260904082508 75 227 0.0 0.0 0.00 0.00 0.00 63 1013.7
20260904082008 75 227 0.0 0.0 0.00 0.00 0.00 63 1013.8
20260904081509 75 227 0.0 0.0 0.00 0.00 0.00 63 1013.8
20260904081006 76 227 0.0 0.0 0.00 0.00 0.00 63 1013.7
20260904080507 76 227 0.0 0.0 0.00 0.00 0.00 63 1013.7
20260904080008 76 227 0.0 0.0 0.00 0.00 0.00 63 1013.7
20260904075506 76 227 0.0 0.0 0.00 0.00 0.00 63 1013.7
20260904075005 76 227 0.0 0.0 0.00 0.00 0.00 62 1013.6
20260904074503 76 227 0.0 0.0 0.00 0.00 0.00 62 1013.7
20260904074003 77 227 0.0 0.0 0.00 0.00 0.00 61 1013.8
20260904073503 77 227 0.0 0.0 0.00 0.00 0.00 61 1013.7
20260904073002 77 227 0.0 0.0 0.00 0.00 0.00 61 1013.7
20260904072059 78 227 0.0 0.0 0.00 0.00 0.00 60 1013.8
20260904071620 79 227 0.0 0.0 0.00 0.00 0.00 59 1013.8
20260904071100 80 227 0.0 0.0 0.00 0.00 0.00 57 1013.8
20260904070559 80 227 0.0 0.0 0.00 0.00 0.00 57 1013.7
20260904070116 80 227 0.0 0.0 0.00 0.00 0.00 57 1013.7
20260904065600 80 227 0.0 0.0 0.00 0.00 0.00 56 1013.8
20260904065058 80 227 0.0 0.0 0.00 0.00 0.00 57 1013.7
20260904064557 80 227 0.0 0.0 0.00 0.00 0.00 57 1013.6
20260904064057 80 227 0.0 0.0 0.00 0.00 0.00 57 1013.6
20260904063557 80 227 0.0 0.0 0.00 0.00 0.00 57 1013.7
20260904063105 80 227 0.0 0.0 0.00 0.00 0.00 57 1013.7
20260904062559 80 227 0.0 0.0 0.00 0.00 0.00 57 1013.8
20260904062055 80 227 0.0 0.0 0.00 0.00 0.00 57 1013.7
20260904061555 80 227 0.0 0.0 0.00 0.00 0.00 57 1013.9
20260904061054 80 227 0.0 0.0 0.00 0.00 0.00 57 1013.9
20260904060556 80 227 0.0 0.0 0.00 0.00 0.00 57 1013.9
20260904060054 80 227 0.0 0.0 0.00 0.00 0.00 57 1013.9
20260904055553 79 227 0.0 0.0 0.00 0.00 0.00 57 1013.9
20260904055052 79 227 0.0 0.0 0.00 0.00 0.00 57 1013.9
20260904054553 79 227 0.0 0.0 0.00 0.00 0.00 57 1014.0
20260904054051 79 227 0.0 0.0 0.00 0.00 0.00 57 1014.1
20260904053552 79 227 0.0 0.0 0.00 0.00 0.00 57 1014.1
20260904053101 79 227 0.0 0.0 0.00 0.00 0.00 57 1014.1
20260904052550 79 227 0.0 0.0 0.00 0.00 0.00 57 1014.1
20260904052049 79 227 0.0 0.0 0.00 0.00 0.00 57 1014.1
20260904051549 79 227 0.0 0.0 0.00 0.00 0.00 58 1014.1
20260904051047 79 227 0.0 0.0 0.00 0.00 0.00 58 1014.1
20260904050546 79 227 0.0 0.0 0.00 0.00 0.00 58 1014.2
20260904050047 79 227 0.0 0.0 0.00 0.00 0.00 58 1014.2
20260904045546 79 227 0.0 0.0 0.00 0.00 0.00 58 1014.3
20260904045046 79 227 0.0 0.0 0.00 0.00 0.00 59 1014.3
20260904044546 78 227 0.0 0.0 0.00 0.00 0.00 59 1014.3
20260904044046 79 227 0.0 0.0 0.00 0.00 0.00 59 1014.3
20260904043545 79 227 0.0 0.0 0.00 0.00 0.00 59 1014.3
20260904043056 78 227 0.0 0.0 0.00 0.00 0.00 59 1014.3
20260904042551 78 227 0.0 0.0 0.00 0.00 0.00 59 1014.4
20260904042044 78 227 0.0 0.0 0.00 0.00 0.00 59 1014.3
20260904041544 78 227 0.0 0.0 0.00 0.00 0.00 60 1014.2
20260904041046 78 227 0.0 0.0 0.00 0.00 0.00 60 1014.3
20260904040542 78 227 0.0 0.0 0.00 0.00 0.00 60 1014.3
20260904040100 78 227 0.0 0.0 0.00 0.00 0.00 60 1014.3
20260904035541 78 227 0.0 0.0 0.00 0.00 0.00 61 1014.3
20260904035041 78 227 0.0 0.0 0.00 0.00 0.00 61 1014.4
20260904034541 78 227 0.0 0.0 0.00 0.00 0.00 61 1014.4
20260904034041 78 227 0.0 0.0 0.00 0.00 0.00 62 1014.3
20260904033541 78 227 0.0 0.0 0.00 0.00 0.00 62 1014.4
20260904033043 78 227 0.0 0.0 0.00 0.00 0.00 62 1014.5
20260904032541 78 227 0.0 0.0 0.00 0.00 0.00 62 1014.4
20260904032041 78 227 0.0 0.0 0.00 0.00 0.00 62 1014.5
20260904031553 78 227 0.0 0.0 0.00 0.00 0.00 62 1014.5
20260904031040 78 227 0.0 0.0 0.00 0.00 0.00 62 1014.5
20260904030540 78 227 0.0 0.0 0.00 0.00 0.00 62 1014.6
20260904030040 78 227 0.0 0.0 0.00 0.00 0.00 62 1014.5
20260904025540 78 227 0.0 0.0 0.00 0.00 0.00 62 1014.6
20260904025040 78 227 0.0 0.0 0.00 0.00 0.00 62 1014.6
20260904024539 78 227 0.0 0.0 0.00 0.00 0.00 63 1014.6
20260904024039 79 227 0.0 0.0 0.00 0.00 0.00 63 1014.5
20260904023543 79 227 0.0 0.0 0.00 0.00 0.00 62 1014.5
20260904023039 79 227 0.0 0.0 0.00 0.00 0.00 62 1014.5
20260904022538 79 227 0.0 0.0 0.00 0.00 0.00 62 1014.5
20260904022039 79 227 0.0 0.0 0.00 0.00 0.00 62 1014.5
20260904021538 79 227 0.0 0.0 0.00 0.00 0.00 62 1014.5
20260904021038 79 227 0.0 0.0 0.00 0.00 0.00 62 1014.4
20260904020538 79 227 0.0 0.0 0.00 0.00 0.00 62 1014.4
20260904020042 80 227 0.0 0.0 0.00 0.00 0.00 62 1014.4
20260904015539 80 227 0.0 0.0 0.00 0.00 0.00 62 1014.4
20260904015038 80 227 0.0 0.0 0.00 0.00 0.00 62 1014.4
20260904014538 80 227 0.0 0.9 0.00 0.00 0.00 61 1014.4
20260904014038 80 227 0.0 0.9 0.00 0.00 0.00 61 1014.3
20260904013539 81 288 0.0 0.0 0.00 0.00 0.00 60 1014.2
20260904013044 81 288 0.0 0.0 0.00 0.00 0.00 60 1014.2
20260904012537 81 288 0.0 0.0 0.00 0.00 0.00 59 1014.1
20260904012037 81 288 0.0 0.0 0.00 0.00 0.00 59 1014.1
20260904011543 82 288 0.0 0.0 0.00 0.00 0.00 58 1014.1
20260904011036 82 288 0.0 0.0 0.00 0.00 0.00 57 1014.0
20260904010536 82 288 0.0 0.0 0.00 0.00 0.00 57 1013.8
20260904010036 83 288 0.0 0.0 0.00 0.00 0.00 56 1013.9
20260904005535 83 288 0.0 0.0 0.00 0.00 0.00 56 1013.7
20260904005035 84 288 0.0 0.0 0.00 0.00 0.00 56 1013.7
20260904004536 85 288 0.0 0.0 0.00 0.00 0.00 55 1013.7
20260904004036 85 290 0.0 0.0 0.00 0.00 0.00 52 1013.6
20260904003536 85 291 0.0 0.0 0.00 0.00 0.00 50 1013.6
20260904003035 86 290 0.0 0.0 0.00 0.00 0.00 51 1013.6
20260904002537 86 290 0.0 0.0 0.00 0.00 0.00 52 1013.5
20260904002035 87 290 0.0 0.0 0.00 0.00 0.00 51 1013.5
20260904001534 88 291 0.0 0.0 0.00 0.00 0.00 50 1013.5
20260904001034 88 291 0.0 0.0 0.00 0.00 0.00 51 1013.4
20260904000534 89 290 0.0 0.0 0.00 0.00 0.00 50 1013.3
20260904000034 89 291 0.0 0.0 0.00 0.00 0.00 48 1013.4
20260903235536 90 291 0.0 0.0 0.00 0.00 0.00 48 1013.3
20260903235034 90 291 0.0 0.0 0.00 0.00 0.00 46 1013.3
20260903234533 90 291 0.0 0.0 0.00 0.00 0.00 44 1013.2
20260903234034 90 291 0.0 0.0 0.00 0.00 0.00 43 1013.2
20260903233538 93 291 0.0 0.0 0.00 0.00 0.00 44 1013.2
20260903233033 94 291 0.0 0.0 0.00 0.00 0.00 42 1013.3
20260903232533 93 291 0.0 0.0 0.00 0.00 0.00 42 1013.2
20260903232033 92 291 0.0 0.0 0.00 0.00 0.00 41 1013.1
20260903231536 93 291 0.0 0.0 0.00 0.00 0.00 42 1013.1
20260903231032 95 290 0.0 0.0 0.00 0.00 0.00 40 1013.0
20260903230532 95 291 0.0 0.0 0.00 0.00 0.00 38 1013.0
20260903230044 95 291 0.0 0.0 0.00 0.00 0.00 35 1013.0
20260903225536 96 291 0.0 0.0 0.00 0.00 0.00 36 1013.1
20260903225031 96 290 0.0 0.0 0.00 0.00 0.00 32 1013.1
20260903224534 96 290 0.0 0.0 0.00 0.00 0.00 32 1013.1
20260903224032 95 290 0.0 0.0 0.00 0.00 0.00 33 1013.1
20260903223531 95 290 0.0 0.0 0.00 0.00 0.00 33 1013.1
20260903223031 95 290 0.0 0.0 0.00 0.00 0.00 34 1013.1
20260903222532 95 290 0.0 0.0 0.00 0.00 0.00 33 1013.1
20260903222031 96 267 0.0 0.0 0.00 0.00 0.00 33 1013.1
20260903221530 96 258 0.0 0.0 0.00 0.00 0.00 32 1013.0
20260903221030 96 258 0.0 0.0 0.00 0.00 0.00 32 1013.1
20260903220529 96 258 0.0 0.0 0.00 0.00 0.00 33 1013.0
20260903220029 96 257 0.0 0.0 0.00 0.00 0.00 33 1013.0
20260903215529 96 283 0.0 0.0 0.00 0.00 0.00 32 1013.1
20260903215028 96 295 0.0 0.0 0.00 0.00 0.00 32 1013.1
20260903214531 96 260 0.0 0.0 0.00 0.00 0.00 32 1013.3
20260903214028 96 256 0.0 0.0 0.00 0.00 0.00 32 1013.2
20260903213527 96 259 0.0 0.0 0.00 0.00 0.00 31 1013.2
20260903213039 96 211 0.0 0.0 0.00 0.00 0.00 31 1013.2
20260903212532 96 225 0.0 0.0 0.00 0.00 0.00 31 1013.3
20260903212024 97 255 0.0 0.0 0.00 0.00 0.00 33 1013.4
20260903211530 96 204 0.0 0.0 0.00 0.00 0.00 32 1013.5
20260903211024 96 220 0.0 0.0 0.00 0.00 0.00 32 1013.6
20260903210522 96 268 0.0 0.0 0.00 0.00 0.00 33 1013.7
20260903210021 96 298 0.0 0.0 0.00 0.00 0.00 33 1013.7
20260903205521 96 294 0.0 0.0 0.00 0.00 0.00 35 1013.8
20260903205021 96 297 0.0 0.0 0.00 0.00 0.00 33 1013.7
20260903204521 96 289 0.0 0.0 0.00 0.00 0.00 32 1013.8
20260903204021 96 314 0.0 0.0 0.00 0.00 0.00 32 1013.8
20260903203524 96 344 0.0 0.0 0.00 0.00 0.00 32 1013.8
20260903203020 97 292 0.0 0.0 0.00 0.00 0.00 32 1013.8
20260903202521 97 269 0.0 0.0 0.00 0.00 0.00 32 1013.9
20260903202019 97 273 0.0 0.0 0.00 0.00 0.00 32 1014.0
20260903201530 96 360 0.0 0.0 0.00 0.00 0.00 32 1014.0